Location: �quirre
(50.4736°N, 2.2351°E)
Time: 08:41:44
(UTC+00:00)

Cosmos 2227 Rocket - Pass Details

Date: 07 August 2020
Orbit: 840 x 844 km, 71.0° (Epoch: 21 September)

Event Time Altitude Azimuth Distance (km) Brightness Sun altitude
Exits shadow 03:14:55 11° 249° (WSW) 2,377 4.0 -10.4°
Maximum altitude 03:19:48 34° 313° (NW) 1,355 3.2 -9.8°
Drops below altitude 10° 03:24:57 10° 18° (NNE) 2,474 5.6 -9.2°
Sets 03:27:38 0° 28° (NNE) 3,412 6.8 -8.8°
